Simultaneous Nadir Overpasses (SNOs) Predictions

Prediction of SNOs between GOES-17 and NOAA-19 Satellite Orbit:

Table of predicted SNOs for the next 14.0 days since TLE Epoch: 7/25/2025
Index Date Time (GOES-17) GOES-17 Lat,Lon NOAA-19 Lat,Lon Distance(km) Time Diff (sec)
1 07/26/2025 16:05:08 0.00, -89.50 0.76, -92.80 376.72 80
2 07/27/2025 15:52:28 -0.00, -89.50 0.06, -89.73 26.14 80
3 07/28/2025 15:37:09 -0.01, -89.51 -0.64, -86.65 324.66 80
4 07/31/2025 03:58:23 -0.00, -89.50 -0.35, -91.09 181.09 80
5 08/01/2025 03:43:03 0.00, -89.51 0.34, -88.02 170.07 80
6 08/03/2025 16:04:14 0.02, -89.55 0.67, -92.44 329.51 80
7 08/04/2025 15:48:55 0.01, -89.55 -0.04, -89.36 21.63 80
8 08/05/2025 15:36:15 0.01, -89.56 -0.75, -86.29 372.82 80
9 08/07/2025 04:10:08 -0.03, -89.54 -1.01, -93.79 484.73 80
10 08/08/2025 03:57:29 -0.02, -89.55 -0.31, -90.72 133.41 80
